Le nostre stazioni meteo in Italia

Pubblicità
Il mio iltempo24.it
Ustica, Italia (16400): Temperatura & dewpoint: 15.06.2019 00:00:00 - 21.06.2019 00:00:00 (CEST)Ustica, Italia (16400): velocità del vento: 15.06.2019 00:00:00 - 21.06.2019 00:00:00 (CEST)Ustica, Italia (16400): direzione del vento: 15.06.2019 00:00:00 - 21.06.2019 00:00:00 (CEST)Ustica, Italia (16400): reduced air pressure: 15.06.2019 00:00:00 - 21.06.2019 00:00:00 (CEST)Ustica, Italia (16400): visibility: 15.06.2019 00:00:00 - 21.06.2019 00:00:00 (CEST)Ustica, Italia (16400): ore di luce: 15.06.2019 00:00:00 - 21.06.2019 00:00:00 (CEST)
Data & Tempo tt [°C] td [°C] ff [km/h] ff [kn] dd ppp [hPa] vv [km] sd [min]
21.06.2019 00:00:00 - - - - - - - -
20.06.2019 23:00:00 - - - - - - - -
20.06.2019 22:00:00 - - - - - - - -
20.06.2019 21:00:00 - - - - - - - -
20.06.2019 20:00:00 22,4 19,5 18 10 ESE 1014,6 20 48
20.06.2019 19:00:00 23,0 18,9 15 8 ESE 1015,0 20 60
20.06.2019 18:00:00 23,4 17,8 16 9 ESE 1014,9 20 60
20.06.2019 17:00:00 24,2 18,4 16 9 ESE 1014,9 20 60
20.06.2019 16:00:00 24,6 18,5 18 10 SE 1015,2 20 60
20.06.2019 15:00:00 24,8 18,1 18 10 SE 1015,7 20 60
20.06.2019 14:00:00 25,2 18,5 15 8 SE 1016,1 20 60
20.06.2019 13:00:00 25,0 17,3 13 7 SE 1016,2 20 60
20.06.2019 12:00:00 25,0 16,7 8 4 N 1016,2 20 60
20.06.2019 11:00:00 24,2 16,4 11 6 ESE 1016,6 20 60
20.06.2019 10:00:00 23,8 17,0 5 3 S 1016,6 20 60
20.06.2019 09:00:00 23,4 16,8 5 3 ESE 1016,6 20 60
20.06.2019 08:00:00 23,0 16,4 4 2 N 1015,9 20 -
20.06.2019 07:00:00 - - - - - - - -
20.06.2019 06:00:00 - - - - - - - -
20.06.2019 05:00:00 - - - - - - - -
20.06.2019 04:00:00 - - - - - - - -
20.06.2019 03:00:00 - - - - - - - -
20.06.2019 02:00:00 - - - - - - - -
20.06.2019 01:00:00 - - - - - - - -
20.06.2019 00:00:00 - - - - - - - -
19.06.2019 23:00:00 - - - - - - - -
19.06.2019 22:00:00 - - - - - - - -
19.06.2019 21:00:00 - - - - - - - -
19.06.2019 20:00:00 23,0 16,1 4 2 N 1014,9 20 48
19.06.2019 19:00:00 24,0 16,9 5 3 N 1014,2 20 60
19.06.2019 18:00:00 26,2 16,7 5 3 N 1014,9 20 60
19.06.2019 17:00:00 26,8 15,7 5 3 N 1015,2 20 60
19.06.2019 16:00:00 26,8 14,2 5 3 N 1015,4 20 60
19.06.2019 15:00:00 27,2 14,0 4 2 N 1015,6 20 60
19.06.2019 14:00:00 27,0 12,5 5 3 N 1015,8 20 60
19.06.2019 13:00:00 27,0 15,2 4 2 N 1015,8 20 60
19.06.2019 12:00:00 26,0 14,4 4 2 N 1015,8 20 60
19.06.2019 11:00:00 25,6 15,3 4 2 N 1015,9 20 60
19.06.2019 10:00:00 24,8 16,1 5 3 N 1015,8 20 60
19.06.2019 09:00:00 24,6 16,9 4 2 N 1015,7 20 60
19.06.2019 08:00:00 23,4 18,5 4 2 - 1015,7 20 30
19.06.2019 07:00:00 - - - - - - - -
19.06.2019 06:00:00 - - - - - - - -
19.06.2019 05:00:00 - - - - - - - -
19.06.2019 04:00:00 - - - - - - - -
19.06.2019 03:00:00 - - - - - - - -
19.06.2019 02:00:00 - - - - - - - -
19.06.2019 01:00:00 - - - - - - - -
19.06.2019 00:00:00 - - - - - - - -
18.06.2019 23:00:00 - - - - - - - -
18.06.2019 22:00:00 - - - - - - - -
18.06.2019 21:00:00 - - - - - - - -
18.06.2019 20:00:00 22,2 16,2 4 2 N 1016,1 20 30
18.06.2019 19:00:00 23,4 16,5 5 3 N 1015,4 20 60
18.06.2019 18:00:00 26,0 16,8 9 5 N 1015,0 20 60
18.06.2019 17:00:00 26,8 17,4 9 5 N 1015,1 20 60
18.06.2019 16:00:00 27,6 17,4 9 5 N 1014,8 20 60
18.06.2019 15:00:00 27,8 16,9 8 4 N 1015,2 20 60
18.06.2019 14:00:00 26,8 17,8 8 4 N 1015,7 20 60
18.06.2019 13:00:00 26,6 17,5 8 4 N 1015,5 20 60
18.06.2019 12:00:00 27,2 18,2 5 3 N 1015,6 20 60
18.06.2019 11:00:00 26,6 18,2 8 4 N 1015,5 20 60
18.06.2019 10:00:00 25,6 18,0 5 3 N 1015,4 20 60
18.06.2019 09:00:00 24,0 17,8 4 2 N 1015,5 20 60
18.06.2019 08:00:00 22,4 21,0 5 3 N 1015,5 20 18
18.06.2019 07:00:00 - - - - - - - -
18.06.2019 06:00:00 - - - - - - - -
18.06.2019 05:00:00 - - - - - - - -
18.06.2019 04:00:00 - - - - - - - -
18.06.2019 03:00:00 - - - - - - - -
18.06.2019 02:00:00 - - - - - - - -
18.06.2019 01:00:00 - - - - - - - -
18.06.2019 00:00:00 - - - - - - - -
17.06.2019 23:00:00 - - - - - - - -
17.06.2019 22:00:00 - - - - - - - -
17.06.2019 21:00:00 - - - - - - - -
17.06.2019 20:00:00 22,4 18,0 8 4 N 1013,6 20 -
17.06.2019 19:00:00 23,8 17,3 13 7 N 1012,9 20 60
17.06.2019 18:00:00 25,6 17,4 11 6 N 1013,8 20 60
17.06.2019 17:00:00 27,4 17,5 11 6 N 1014,0 20 60
17.06.2019 16:00:00 28,0 16,6 9 5 N 1014,4 20 60
17.06.2019 15:00:00 27,8 16,9 8 4 N 1014,4 20 60
17.06.2019 14:00:00 27,6 17,5 5 3 N 1014,8 20 60
17.06.2019 13:00:00 26,0 15,8 5 3 N 1015,0 20 60
17.06.2019 12:00:00 25,2 17,2 5 3 N 1015,4 20 60
17.06.2019 11:00:00 25,2 17,2 5 3 NE 1015,3 20 60
17.06.2019 10:00:00 25,2 18,9 5 3 NNE 1015,2 20 60
17.06.2019 09:00:00 24,0 19,4 8 4 N 1015,3 20 24
17.06.2019 08:00:00 23,2 20,7 5 3 N 1014,9 20 18
17.06.2019 07:00:00 - - - - - - - -
17.06.2019 06:00:00 - - - - - - - -
17.06.2019 05:00:00 - - - - - - - -
17.06.2019 04:00:00 - - - - - - - -
17.06.2019 03:00:00 - - - - - - - -
17.06.2019 02:00:00 - - - - - - - -
17.06.2019 01:00:00 - - - - - - - -
17.06.2019 00:00:00 - - - - - - - -
16.06.2019 23:00:00 - - - - - - - -
16.06.2019 22:00:00 - - - - - - - -
16.06.2019 21:00:00 - - - - - - - -
16.06.2019 20:00:00 23,0 17,7 8 4 N 1015,4 20 18
16.06.2019 19:00:00 24,2 17,7 8 4 N 1015,5 20 60
16.06.2019 18:00:00 26,0 18,2 8 4 N 1015,4 20 60
16.06.2019 17:00:00 26,8 17,8 8 4 N 1015,7 20 60
16.06.2019 16:00:00 27,4 17,4 9 5 N 1016,1 20 60
16.06.2019 15:00:00 28,2 18,3 9 5 N 1016,1 20 60
16.06.2019 14:00:00 28,0 18,5 8 4 N 1016,6 20 60
16.06.2019 13:00:00 28,4 18,6 8 4 N 1017,0 20 60
16.06.2019 12:00:00 27,4 19,4 8 4 N 1017,1 20 60
16.06.2019 11:00:00 25,8 19,2 9 5 N 1016,7 20 42
16.06.2019 10:00:00 24,8 20,0 8 4 N 1016,8 10 24
16.06.2019 09:00:00 23,6 22,2 8 4 N 1016,7 10 36
16.06.2019 08:00:00 21,6 21,3 5 3 N 1016,5 10 -
16.06.2019 07:00:00 - - - - - - - -
16.06.2019 06:00:00 - - - - - - - -
16.06.2019 05:00:00 - - - - - - - -
16.06.2019 04:00:00 - - - - - - - -
16.06.2019 03:00:00 - - - - - - - -
16.06.2019 02:00:00 - - - - - - - -
16.06.2019 01:00:00 - - - - - - - -
16.06.2019 00:00:00 - - - - - - - -
15.06.2019 23:00:00 - - - - - - - -
15.06.2019 22:00:00 - - - - - - - -
15.06.2019 21:00:00 - - - - - - - -
15.06.2019 20:00:00 22,8 18,7 8 4 N 1015,7 10 -
15.06.2019 19:00:00 23,8 18,6 9 5 N 1015,3 10 -
15.06.2019 18:00:00 23,8 17,9 11 6 NNO 1015,7 10 -
15.06.2019 17:00:00 25,0 17,7 4 2 N 1016,0 20 42
15.06.2019 16:00:00 25,0 17,0 13 7 OSO 1016,1 20 36
15.06.2019 15:00:00 28,2 16,7 4 2 N 1016,1 20 60
15.06.2019 14:00:00 28,2 16,4 5 3 N 1016,3 20 60
15.06.2019 13:00:00 28,0 15,3 8 4 NNO 1016,8 20 60
15.06.2019 12:00:00 28,0 15,4 8 4 N 1016,5 20 60
15.06.2019 11:00:00 24,4 16,7 13 7 - 1016,8 20 60
15.06.2019 10:00:00 23,4 16,5 22 12 OSO 1016,5 10 60
15.06.2019 09:00:00 22,8 16,5 26 14 SO 1016,6 10 48
15.06.2019 08:00:00 21,4 18,2 26 14 SO 1016,5 10 24
15.06.2019 07:00:00 - - - - - - - -
15.06.2019 06:00:00 - - - - - - - -
15.06.2019 05:00:00 - - - - - - - -
15.06.2019 04:00:00 - - - - - - - -
15.06.2019 03:00:00 - - - - - - - -
15.06.2019 02:00:00 - - - - - - - -
15.06.2019 01:00:00 - - - - - - - -
15.06.2019 00:00:00 - - - - - - - -

tt = Temperatura
td = dewpoint
ff = velocità del vento
dd = direzione del vento
ppp = reduced air pressure
vv = visibility
sd = ore di luce

Stazioni seguenti

WeatherPro
AMSI
MeteoEarth